Waarnemingen

Advertentie
Mijn weer
Bierset/Liege, België (6478): temperatuur & dauwpunt: 07.11.2019 04:00:00 - 13.11.2019 04:00:00 (CET)Bierset/Liege, België (6478): windsnelheid & windstoten: 07.11.2019 04:00:00 - 13.11.2019 04:00:00 (CET)Bierset/Liege, België (6478): windrichting: 07.11.2019 04:00:00 - 13.11.2019 04:00:00 (CET)Bierset/Liege, België (6478): luchtdruk: 07.11.2019 04:00:00 - 13.11.2019 04:00:00 (CET)Bierset/Liege, België (6478): zicht: 07.11.2019 04:00:00 - 13.11.2019 04:00:00 (CET)
Datum & Tijd tt [°C] td [°C] ff [km/u] ff [kn] fx [km/u] fx [kn] dd ppp [hPa] vv [km]
13.11.2019 04:00:00 3,6 1,9 21 11 - - Z 1000,9 10
13.11.2019 03:00:00 3,5 1,6 21 11 36 19 ZZW 1000,9 10
13.11.2019 02:00:00 3,3 1,2 26 14 36 19 ZZW 1000,5 10
13.11.2019 01:00:00 2,9 0,9 22 12 - - ZZW 1000,6 10
13.11.2019 00:00:00 3,1 1,0 21 11 40 21 Z 1000,6 10
12.11.2019 23:00:00 3,4 1,3 28 15 43 23 ZZW 1000,8 10
12.11.2019 22:00:00 3,6 1,2 28 15 - - ZZW 1001,3 10
12.11.2019 21:00:00 3,5 1,5 24 13 43 23 Z 1001,7 10
12.11.2019 20:00:00 3,7 1,6 21 11 32 18 ZZW 1001,4 10
12.11.2019 19:00:00 3,7 1,6 21 11 - - Z 1001,7 10
12.11.2019 18:00:00 4,1 1,4 18 10 36 19 Z 1002,1 10
12.11.2019 17:00:00 5,0 1,4 24 13 36 19 ZZW 1001,9 10
12.11.2019 16:00:00 5,6 1,6 22 12 - - ZW 1001,6 10
12.11.2019 15:00:00 5,2 1,9 24 13 36 19 ZW 1001,7 10
12.11.2019 14:00:00 5,7 2,5 24 13 32 18 ZW 1001,6 10
12.11.2019 13:00:00 5,3 2,2 25 14 - - ZW 1001,7 35
12.11.2019 12:00:00 4,8 3,0 24 13 40 21 ZW 1001,9 10
12.11.2019 11:00:00 4,0 2,8 26 14 40 21 ZZW 1002,1 10
12.11.2019 10:00:00 3,7 2,3 28 15 - - ZZW 1002,0 10
12.11.2019 09:00:00 3,5 2,3 18 10 36 19 Z 1002,3 10
12.11.2019 08:00:00 3,9 2,3 22 12 40 21 Z 1002,4 10
12.11.2019 07:00:00 4,4 2,1 22 12 - - ZZW 1002,7 10
12.11.2019 06:00:00 4,4 2,3 24 13 47 25 ZZW 1002,9 10
12.11.2019 05:00:00 4,5 2,5 24 13 47 25 ZZW 1003,3 10
12.11.2019 04:00:00 4,4 2,0 24 13 - - ZZW 1003,7 10
12.11.2019 03:00:00 3,9 2,2 22 12 32 18 ZZW 1004,2 10
12.11.2019 02:00:00 3,9 2,3 22 12 40 21 ZZW 1004,2 10
12.11.2019 01:00:00 3,8 2,0 22 12 - - ZZW 1004,4 10
12.11.2019 00:00:00 3,9 2,4 22 12 36 19 ZZW 1004,4 10
11.11.2019 23:00:00 4,3 2,9 21 11 29 16 ZZW 1004,3 10
11.11.2019 22:00:00 4,9 3,6 16 9 - - ZZW 1004,1 10
11.11.2019 21:00:00 4,7 3,5 16 9 25 14 ZZW 1004,0 10
11.11.2019 20:00:00 4,6 3,3 16 9 29 16 ZZW 1003,6 10
11.11.2019 19:00:00 4,8 3,6 15 8 - - ZZW 1003,3 10
11.11.2019 18:00:00 4,8 3,4 22 12 36 19 ZZW 1002,9 10
11.11.2019 17:00:00 4,7 3,3 26 14 43 23 ZZW 1002,7 10
11.11.2019 16:00:00 5,2 3,4 31 17 - - ZZW 1002,6 8
11.11.2019 15:00:00 6,1 4,4 26 14 43 23 ZZW 1002,5 6
11.11.2019 14:00:00 6,9 3,2 29 16 50 27 ZZW 1003,0 10
11.11.2019 13:00:00 6,9 2,6 35 19 - - Z 1003,8 10
11.11.2019 12:00:00 6,7 2,4 34 18 47 25 Z 1005,2 10
11.11.2019 11:00:00 6,8 2,8 35 19 50 27 Z 1005,8 10
11.11.2019 10:00:00 5,6 2,4 18 10 - - Z 1006,8 10
11.11.2019 09:00:00 4,9 2,3 21 11 36 19 Z 1008,1 10
11.11.2019 08:00:00 4,4 2,1 15 8 32 18 Z 1008,7 10
11.11.2019 07:00:00 4,8 2,4 16 9 - - Z 1009,2 10
11.11.2019 06:00:00 4,8 2,7 18 10 32 18 ZZO 1010,4 10
11.11.2019 05:00:00 5,0 2,8 16 9 32 18 Z 1011,9 10
11.11.2019 04:00:00 4,6 2,5 13 7 - - Z 1012,7 10
11.11.2019 03:00:00 4,0 2,2 15 8 22 12 Z 1013,1 10
11.11.2019 02:00:00 3,8 2,0 13 7 29 16 Z 1014,5 10
11.11.2019 01:00:00 3,0 1,2 15 8 - - Z 1014,7 10
11.11.2019 00:00:00 2,7 1,2 15 8 36 19 ZZO 1014,6 10
10.11.2019 23:00:00 2,8 1,2 13 7 25 14 ZZO 1015,0 10
10.11.2019 22:00:00 3,1 1,3 13 7 - - ZZO 1015,1 10
10.11.2019 21:00:00 4,1 1,7 15 8 29 16 ZZO 1015,3 10
10.11.2019 20:00:00 5,9 1,8 9 5 18 10 ZZO 1015,6 10
10.11.2019 19:00:00 6,2 2,1 8 4 - - O 1015,1 10
10.11.2019 18:00:00 6,7 3,0 5 3 7 4 O 1015,1 10
10.11.2019 17:00:00 6,4 3,0 5 3 11 6 NNO 1014,5 10
10.11.2019 16:00:00 8,2 3,7 9 5 - - N 1013,7 10
10.11.2019 15:00:00 9,7 2,7 2 1 18 10 - 1012,9 10
10.11.2019 14:00:00 10,3 2,8 4 2 14 8 - 1012,6 10
10.11.2019 13:00:00 8,8 2,7 5 3 - - OZO 1012,6 10
10.11.2019 12:00:00 7,3 2,3 9 5 36 19 OZO 1012,6 10
10.11.2019 11:00:00 6,0 2,3 11 6 36 19 ZO 1012,3 12
10.11.2019 10:00:00 4,0 1,5 9 5 - - ZO 1012,1 10
10.11.2019 09:00:00 2,7 0,8 13 7 32 18 OZO 1011,5 10
10.11.2019 08:00:00 1,9 0,5 15 8 32 18 ZO 1010,9 10
10.11.2019 07:00:00 2,4 0,7 13 7 - - ZO 1009,9 10
10.11.2019 06:00:00 2,5 0,7 15 8 22 12 ZO 1009,4 10
10.11.2019 05:00:00 2,6 0,7 15 8 22 12 ZO 1008,9 10
10.11.2019 04:00:00 1,9 0,3 15 8 - - ZO 1008,6 10
10.11.2019 03:00:00 2,2 0,4 11 6 18 10 OZO 1008,6 10
10.11.2019 02:00:00 2,0 0,3 9 5 11 6 ZO 1008,5 10
10.11.2019 01:00:00 2,1 0,4 11 6 - - ZO 1008,2 10
10.11.2019 00:00:00 2,7 0,7 9 5 18 10 ZO 1008,1 10
09.11.2019 23:00:00 2,4 1,0 11 6 32 18 ZZO 1008,1 10
09.11.2019 22:00:00 3,5 1,3 15 8 - - ZZO 1007,9 10
09.11.2019 21:00:00 3,4 1,4 15 8 22 12 Z 1008,4 10
09.11.2019 20:00:00 3,7 1,6 11 6 18 10 Z 1008,4 10
09.11.2019 19:00:00 4,0 1,7 11 6 - - Z 1008,4 10
09.11.2019 18:00:00 4,5 2,0 13 7 22 12 Z 1008,4 10
09.11.2019 17:00:00 5,2 2,0 16 9 25 14 Z 1008,3 10
09.11.2019 16:00:00 6,1 1,8 16 9 - - ZZW 1008,4 10
09.11.2019 15:00:00 6,4 2,5 16 9 32 18 ZW 1008,6 10
09.11.2019 14:00:00 6,4 2,5 21 11 32 18 ZZW 1009,0 10
09.11.2019 13:00:00 6,0 3,5 18 10 - - ZW 1009,3 10
09.11.2019 12:00:00 5,6 4,1 22 12 29 16 ZW 1009,7 10
09.11.2019 11:00:00 5,2 4,0 22 12 32 18 ZW 1010,0 8
09.11.2019 10:00:00 5,0 3,4 22 12 - - ZW 1009,9 8
09.11.2019 09:00:00 4,5 3,3 24 13 36 19 ZW 1009,9 8
09.11.2019 08:00:00 4,3 3,3 21 11 29 16 ZW 1010,0 7
09.11.2019 07:00:00 4,0 3,3 21 11 - - ZW 1009,9 6
09.11.2019 06:00:00 3,9 3,4 16 9 29 16 WZW 1009,8 3,4
09.11.2019 05:00:00 3,6 2,9 18 10 25 14 ZZW 1009,5 4,2
09.11.2019 04:00:00 3,1 2,4 16 9 - - ZZW 1009,8 4,5
09.11.2019 03:00:00 3,1 2,5 15 8 22 12 ZZW 1009,7 4,0
09.11.2019 02:00:00 3,1 2,5 15 8 25 14 ZZW 1009,6 3,2
09.11.2019 01:00:00 3,7 3,0 13 7 - - ZW 1009,5 6
09.11.2019 00:00:00 3,4 2,7 13 7 22 12 ZW 1009,5 8
08.11.2019 23:00:00 2,3 1,8 13 7 14 8 ZW 1009,8 5
08.11.2019 22:00:00 4,4 3,5 8 4 - - ZW 1009,4 10
08.11.2019 21:00:00 3,9 3,1 5 3 11 6 WZW 1009,2 10
08.11.2019 20:00:00 3,6 2,8 8 4 11 6 WZW 1008,8 10
08.11.2019 19:00:00 4,4 3,6 5 3 - - W 1008,4 10
08.11.2019 18:00:00 5,5 4,2 4 2 7 4 W 1007,9 10
08.11.2019 17:00:00 7,4 4,5 4 2 11 6 NW 1007,2 10
08.11.2019 16:00:00 8,5 4,2 5 3 - - NNW 1006,8 10
08.11.2019 15:00:00 8,8 4,5 4 2 11 6 - 1006,2 10
08.11.2019 14:00:00 8,5 4,8 0 0 7 4 N 1006,1 30
08.11.2019 13:00:00 8,9 5,0 2 1 - - - 1006,0 10
08.11.2019 12:00:00 7,8 4,3 4 2 22 12 - 1006,1 10
08.11.2019 11:00:00 6,7 4,0 11 6 36 19 ZZO 1006,5 10
08.11.2019 10:00:00 5,0 3,1 11 6 - - ZZO 1006,0 10
08.11.2019 09:00:00 3,4 2,0 11 6 29 16 ZZO 1006,0 10
08.11.2019 08:00:00 3,2 1,7 8 4 22 12 Z 1005,4 10
08.11.2019 07:00:00 2,9 1,6 8 4 - - ZZO 1005,0 10
08.11.2019 06:00:00 3,1 1,7 5 3 14 8 OZO 1004,6 10
08.11.2019 05:00:00 3,2 1,8 5 3 22 12 - 1004,4 10
08.11.2019 04:00:00 3,3 2,1 8 4 - - ZO 1004,2 10
08.11.2019 03:00:00 4,0 2,4 16 9 25 14 ZZO 1003,8 10
08.11.2019 02:00:00 4,8 2,5 16 9 32 18 Z 1003,3 10
08.11.2019 01:00:00 4,8 2,7 18 10 - - Z 1003,3 10
08.11.2019 00:00:00 4,8 2,9 15 8 25 14 ZZO 1003,4 10
07.11.2019 23:00:00 5,0 3,2 13 7 32 18 Z 1003,3 10
07.11.2019 22:00:00 5,6 3,3 18 10 - - Z 1002,7 10
07.11.2019 21:00:00 5,6 3,7 16 9 32 18 ZZW 1002,2 10
07.11.2019 20:00:00 5,5 4,2 15 8 25 14 ZZW 1001,8 10
07.11.2019 19:00:00 5,5 3,8 16 9 - - ZZW 1001,3 10
07.11.2019 18:00:00 5,8 4,0 29 16 50 27 WZW 1000,8 10
07.11.2019 17:00:00 6,7 5,1 22 12 29 16 ZZW 999,5 10
07.11.2019 16:00:00 5,7 4,5 18 10 - - ZW 998,8 10
07.11.2019 15:00:00 8,9 5,6 29 16 43 23 ZW 996,9 10
07.11.2019 14:00:00 9,4 6,6 31 17 43 23 ZW 996,1 10
07.11.2019 13:00:00 8,1 7,0 21 11 - - Z 995,2 6
07.11.2019 12:00:00 8,6 6,0 24 13 43 23 Z 995,0 10
07.11.2019 11:00:00 8,5 6,1 24 13 40 21 Z 994,9 10
07.11.2019 10:00:00 8,4 6,2 13 7 - - ZO 995,1 10
07.11.2019 09:00:00 8,0 6,0 15 8 36 19 ZO 995,8 10
07.11.2019 08:00:00 7,5 6,1 11 6 25 14 ZO 996,4 10
07.11.2019 07:00:00 7,8 6,5 9 5 - - ZZO 997,2 10
07.11.2019 06:00:00 7,6 6,4 15 8 25 14 ZZO 998,0 10
07.11.2019 05:00:00 7,6 6,3 11 6 32 18 ZZO 998,5 10
07.11.2019 04:00:00 7,4 6,1 13 7 - - ZZO 999,3 10

tt = temperatuur
td = dauwpunt
ff = windsnelheid
fx = windstoten
dd = windrichting
ppp = luchtdruk
vv = zicht

Weerstations in de omgeving